Location: Harwich
(41.7160°N, 69.9939°W)
Time: 10:42:00
(UTC+02:00)

A-11 Canister half - Pass Details

Date: 27 February 2024
Orbit: 1513 x 1686 km, 47.2° (Epoch: 24 April)

Event Time Altitude Azimuth Distance (km) Brightness Sun altitude
Exits shadow 08:50:51 70° 348° (NNW) 1,753 9.1 -38.7°
Drops below altitude 10° 09:00:44 10° 71° (ENE) 3,860 11.8 -37.0°
Sets 09:03:51 0° 74° (ENE) 4,824 12.6 -36.5°
